Sms Fixed Matches Half Time Full Time Archive

DATA MATCHSms Predictions Today HT FT Bet Sure Tips Archive TIPS ODDS HT / FT
25.09.2022 Vimenor – Siete Villas 2/1 30.00 1:2 – 3:2
24.09.2022 Bahia – Operario PR X/1 5.40 1:2 – 2:2 X
23.09.2022 RW Walldorf – Eddersheim 2/1 30.00 0:1 – 3:1
22.09.2022 France – Austria X/1 5.40 0:0 / 2:0
21.09.2022 Alajuelense – Perez Zeledon 2/1 30.00 0:0 / 1:0 X
20.09.2022 Khalij Fars Mahshahr – Shahrdari Astara X/X 5.00 1:1 / 1:1
19.09.2022 Union Santa Fe – Independiente 2/1 30.00 0:0 / 0:1 X
18.09.2022 Coatepecano IB – Suchitepequez 2/1 30.00 0:1 / 2:1
17.09.2022 Antigua GFC – Guastatoya X/1 5.40 0:0 / 1:1 X
16.09.2022 El Nacional – Mushuc Runa 2/1 30.00 1:0 / 1:0 X
15.09.2022 Cruz Azul – Club Leon X/1 5.50 0:0 / 2:1
14.09.2022 Lanus – Boca Juniors 2/X 15.00 0:0 / 0:1 X
13.09.2022 Racing Club – Patronato X/1 5.40 0:0 / 1:0
12.09.2022 Univ. Concepcion – Barnechea 2/1 30.00 1:1 / 2:1 X
01.09.2022 Indy Eleven – Louisville City X/1 5.40 1:1 / 2:1
31.08.2022 Marathon – Victoria CD X/1 5.40 0:0 / 1:1 X
30.08.2022 CSA – Nautico Capibaribe X/1 5.40 0:0 / 2:0
29.08.2022 Chirk AAA – Porthmadog 2/1 30.00 0:1 / 2:1
28.08.2022 Walter Ferretti – Diriangen X/1 5.40 0:0 / 2:1
27.08.2022 Olimpia A. – Resistencia SC 2/1 30.00 1:0 / 1:1 X
26.08.2022 Oldham – Aldershot X/1 5.40 1:1 / 2:1
25.08.2022 Always Ready – Jorge Wilstermann 2/1 30.00 0:0 / 2:1 X
24.08.2022 Uruguay Montevideo – Progreso X/1 5.50 0:0 / 1:0
23.08.2022 Plzen – Qarabag 2/1 30.00 0:1 / 2:1
22.08.2022 Penafiel – Belenenses 2/X 15.00 0:2 / 3:3
20.08.2022 Patriotas – Rionegro Aguilas X/2 5.70 0:0 / 0:1
19.08.2022 Victoria Hamburg – TuS Dassendorf X/1 5.40 1:1 / 2:1
18.08.2022 CSA – Vasco da Gama 1/2 30.00 2:0 / 2:0 X
17.08.2022 O’Higgins – Union Espanola 2/X 15.00 1:0 / 1:3 X
16.08.2022 Real Cartagena – Real Santander 2/1 30.00 2:0 / 2:0 X
15.08.2022 Mawyawadi FC – Yaw Myay FC X/1 5.40 0:0 / 2:0
13.08.2022 Cuiaba – Juventude EC 2/1 30.00 1:0 / 1:0 X
12.08.2022 Huracan – Sarmiento X/1 5.40 2:1 / 4:1 X
11.08.2022 Aragua – Zamora FC 1/2 30.00 0:0 / 0:1 X
10.08.2022 Chapecoense – Gremio Novorizontino X/X 5.00 1:1 / 2:2
09.08.2022 Rochdale – Burton X/1 5.40 0:0 / 2:0
07.08.2022 Argentino MM – Juventud Unida Un. X/1 5.40 0:0 / 1:0
06.08.2022 Sao Paulo – Flamengo 1/2 30.00 0:1 / 0:2 X
05.08.2022 Vila Nova GO – Ituano X/1 5.50 0:0 / 1:1 X
04.08.2022 Sao Paulo – Ceara X/1 5.50 0:0 / 1:0
03.08.2022 Boyaca Chico – Tigres FC 2/1 30.00 1:0 / 2:2 X
02.08.2022 Sport Recife – Criciúma 2/X 15.00 0:1 / 1:1
01.08.2022 Instituto – All Boys 1/2 30.00 2:0 / 2:0 X
31.07.2022 Honka U20 – Atlantis U20 2/1 30.00 1:2 / 3:2
30.07.2022 Universitario D – Deportivo Municipal 2/1 30.00 0:1 / 0:1 X
29.07.2022 Talleres Cordoba – Union Santa Fe 2/1 30.00 0:0 / 0:0
27.07.2022 Orlando City – New York RB X/1 5.80 1:1 / 5:1
25.07.2022 Liverpool Mont. Reserves – Defensor Sporting Reserves 2/1 30.00 0:1 / 3:1
24.07.2022 Universitario D – Carlos Stein X/1 5.50 0:0 / 2:0
22.07.2022 Waterford FC – Longford Town 1/2 30.00 1:0 / 1:2
21.07.2022 Tobol K. – Lincoln Red Imps X/1 5.40 0:0 / 2:0
20.07.2022 Huracan – Godoy Cruz 2/1 30.00 0:0 / 0:0 X
19.07.2022 Ceara – Avai X/1 5.40 1:0 / 1:0 X
17.07.2022 Tigres UANL – Tijuana 2/1 30.00 0:0 / 1:0 X
16.07.2022 Olimpia A. – Guarani A. 2/1 30.00 1:0 / 2:0 X
15.07.2022 Mlada Boleslav – Varnsdorf 1/X 15.00 1:0 / 1:1
14.07.2022 Manta – Olmedo X/1 5.40 1:1 / 2:1
13.07.2022 JIPPO – KuPS Akatemia X/1 5.40 0:0 / 2:1
12.07.2022 Banfield – Union Santa Fe 2/1 30.00 1:1 / 2:1 X
11.07.2022 Atletico Cearense – Remo X/1 5.40 0:0 / 3:1
10.07.2022 TN Stars – Blue Eagles X/1 5.50 0:0 / 1:0
09.07.2022 Greenville Triumph – Central Valley Fuego X/1 5.50 0:0 / 1:0
08.07.2022 Arges Pitesti – Mioveni 2/X 15.00 0:2 / 2:2
07.07.2022 Hebei Kungfu – Qingdao Youth Island X/1 5.40 0:0 / 3:1
06.07.2022 Sparta P. – Rijeka X/1 5.40 0:0 / 2:0
05.07.2022 Montrose – Dundee FC 2/X 15.00 0:1 / 1:1
04.07.2022 Trelleborgs – Norrby 1/2 30.00 2:0 / 2:1 X
03.07.2022 Campinense – Botafogo SP X/2 5.80 1:1 / 1:3
01.07.2022 Mazatlan FC – Puebla 2/X 15.00 0:2 / 2:4 X
30.06.2022 SO Armee – ASEC Mimosas X/2 5.60 0:0 / 1:2
29.06.2022 Smouha – Al Ahly Cairo 1/2 30.00 2:0 / 3:2 X
28.06.2022 Cruzeiro – Sport Recife X/1 5.40 2:1 / 2:1 X
27.06.2022 Sp. Belgrano – Def. Pronunciamiento X/1 5.50 1:0 / 4:1 X
26.06.2022 EC Bahia U20 – America MG U20 X/2 5.70 1:1 / 1:3
25.06.2022 Tomayapo – Royal Pari 1/X 15.00 ?:? / ?:?
24.06.2022 Real Central New Jersey – Lehigh Valley 2/1 30.00 1:2 / 3:2
23.06.2022 Petrolul Ploiesti – Dinamo-Auto X/1 5.50 1:1 / 2:1
22.06.2022 SuperSport Utd – Club Green Streets X/2 5.50 1:1 / 1:3
21.06.2022 FC Finnkurd – EBK 1/2 30.00 2:2 / 2:7 X
20.06.2022 Floresta EC – Volta Redonda X/X 5.00 0:1 / 1:1 X
19.06.2022 Mineros Guayana – Estudiantes Merida X/X 5.00 0:0 / 1:1
18.06.2022 Cuiaba – Ceara 2/X 15.00 0:0 / 0:0 X
17.06.2022 Eastern Suburbs U23 – Logan Lightning U23 2/1 30.00 2:4 / 5:4
16.06.2022 Racing Club – Velez Sarsfield X/1 5.40 1:0 / 2:0 X
15.06.2022 Ethiopia Bunna – Adama City 2/1 30.00 0:1 / 2:1
14.06.2022 Jamaica – Mexico X/2 5.80 1:1 / 1:1 X
13.06.2022 Defensor S. – Nacional M. 1/2 30.00 0:0 / 0:1 X
12.06.2022 Estudiantes Rio Cuarto – Dep. Riestra X/1 5.50 0:0 / 2:0
11.06.2022 Cuiaba – RB Bragantino 1/X 15.00 1:1 / 1:1 X
10.06.2022 Moldova – Latvia 1/X 15.00 1:2 / 2:4 X
09.06.2022 KV – Afturelding 2/1 30.00 0:0 / 2:1 X
08.06.2022 Juventude EC – Atletico PR 2/X 15.00 1:1 / 1:3 X
06.06.2022 Siegburger – FC Pesch 2/1 30.00 0:1 / 3:1
05.06.2022 Belgrano – Deportivo Morón X/1 5.50 0:0 / 1:0
04.06.2022 Platense – Godoy Cruz X/1 5.80 1:1 / 2:1
03.06.2022 Sleipner – Huddinge 2/1 30.00 1:2 / 1:4 X
02.06.2022 N. Ireland – Greece 2/X 15.00 0:1 / 0:1 X
01.06.2022 CR Brasil – CSA 2/1 30.00 0:0 / 0:0 X

Sms Fixed Matches Half Time Full Time Archive

Histats
Info for all visitors!
Stat-Area.Com cannot guarantee the correctness of information contained within its pages. Any information appearing on the Stat-Area.Com website is not meant in any way to be a source of professional advice or recommendation to in any way bet or gamble. Stat-Area.Com cannot be held responsible for any loss or damage as consequence of decisions based on information, betting advices or third party links provided on this site. The visitor is warned to act exclusively at his own discretion and risk. No betting or gambling of any form occurs on the Stat-Area.Com website. In a region where betting or gambling is not permitted this site should be used for informational purposes only, and not with a view to betting or gambling via a third party website, including those sponsors and affiliates promoted by Stat-Area.Com, where betting or gambling is facilitated. It is the individual's responsibility to ensure that any activity with a thirdy party which facilitates the placement of bets and/or wagers does not breach the laws relating to betting or gambling of the country or state where the individual is based. We at Stat-Area.Com strongly recommend that betting is illegal for anyone under the age of 18.
About Us and Why Us!?
Our customers create a website for lovers of all types of sports and football analysis types. We offer 24/7 availability for our customers, giving types, opinions and expert advice to our matches. Ensuring that you have the makings of our team is 99.9%, which means that once became our associate who remained forever. In our existing teams have 25 agents in daily negotiations with the leadership of the clubs for their conditions, traditions and current needs, in order to obtain perfect matches. In our existing teams have 25 agents in daily negotiations with the leadership of the clubs for their conditions, traditions and current needs, in order to obtain perfect matches. All interested let us join our team and together we will enjoy and make a living with our extra matches. We are expecting!
Best Fixed Matches

Powered By Stat-Area.Com